Dauntless Aviation
Greetings, Guest! To participate, [sign up for a free account] or [log in]
Airports Europe Germany
EDSW

Altdorf-Wallburg

Altdorf-Wallburg, GERMANY

Airport Info
Edit

Location

Latitude / Longitude: 48°16'11"N / 7°50'31"E
  48°16.188'N / 7°50.532'E
  48.2698 / 7.8422
Satellite photo at:
Airport distance calculator
From:
Weather Reports

METAR

EDTL
5.8nm NW
EDTL 281850Z 36006KT 6000 FEW012 03/02 Q1010
LFST
18.2nm NW
LFST 281830Z AUTO 36006KT 8000 BKN013 04/02 Q1010
EDSB
32.3nm N
EDSB 281850Z 03011KT CAVOK 03/01 Q1010

TAF

EDTL
5.8nm NW
TAF EDTL 281700Z 2818/2824 02005KT 6000 BKN015 BECMG 2818/2821 3000 BR BKN005
LFST
18.2nm NW
TAF LFST 281700Z 2818/2918 02008KT 6000 BKN010 TEMPO 2821/2912 3000 BR BKN005 PROB30 TEMPO 2900/2909 0500 BCFG BKN001 TEMPO 2912/2918 SCT015
EDSB
32.3nm N
TAF EDSB 281700Z 2818/2918 03012KT 7000 SCT015 TEMPO 2818/2824 BKN005 BECMG 2900/2903 02006KT 4500 BR BKN008 TEMPO 2903/2909 1200 BCFG OVC001
Safelog

 

Dauntless Aviation

© 2007-2014 Dauntless Aviation, all rights reserved
Information provided via PilotNav comes from a variety of official and unofficial data sources. As errors are possible, do not use PilotNav for primary flight planning purposes. Verify any information that you receive via PilotNav with current and canonical charts and other official documents. The material in this database is subject to database copyrights held by Dauntless Aviation and may not be copied without the express permission of Dauntless Aviation - licenses for use of part of all of this data are available for purchase; enquire via the Dauntless Aviation helpdesk. A number of mechanisms and markers exist in the database to protect against and identify infringement / copyright. Automated queries against this website are stictly prohibited, and all activity is logged and analyzed.